Location: Ar Ranvel
(48.3000°N, 4.8833°W)
Time: 04:05:41
(UTC+00:00)

Cosmos 1452 Rocket - Visible Passes

Search period start: 18 October 2021 00:00
Search period end: 28 October 2021 00:00
Orbit: 766 x 775 km, 74.1° (Epoch: 17 October)

Date Brightness Start Highest point End Pass type
(mag) Time Alt. Az. Time Alt. Az. Time Alt. Az.
18 Oct 6.1 05:53:55 10° NNE 05:56:23 13° NE 05:58:51 10° ENE visible
21 Oct 6.0 05:46:35 10° N 05:50:20 19° NE 05:54:04 10° E visible
22 Oct 6.2 05:11:05 10° NNE 05:13:40 13° NE 05:16:15 10° ENE visible
23 Oct 4.9 06:15:34 10° NNW 06:20:35 41° ENE 06:25:34 10° SE visible
24 Oct 5.5 05:39:35 10° N 05:44:09 28° NE 05:48:40 10° ESE visible
25 Oct 6.0 05:03:47 10° N 05:07:36 20° NE 05:11:24 10° E visible
26 Oct 6.2 04:28:14 10° NNE 04:30:57 14° NE 04:33:38 10° ENE visible
26 Oct 4.0 06:08:53 10° NNW 06:14:10 66° ENE 06:19:25 10° SSE visible
27 Oct 4.7 05:32:47 10° NNW 05:37:50 43° ENE 05:42:50 10° SE visible
